www.pogodaiklimat.ru

Погода и климат >> Архив погоды >> Франция >> Paris Orly Airport


АРХИВ ПОГОДЫ в Paris Orly Airport

Время (UTC), дата Ветер
(напр.,м/с)
 
Видим.   Явления Облачность Т
(С)
Тd
(С)
f
(%)
Тe
(С)
Тes
(С)
Комфортность P
(гПа)
Po
(гПа)
Тmin
(С)
Tmax
(С)
R
(мм)
R24
(мм)
S
(см)
16 11.06 СВ 4
{6}
14 км слабый ливневой дождь 9/4 450 м
[Frnb Ac trans Ci sp]
+21.4 +19.3 88 +26 +28 душно 1008.1 997.7 0.0
17 11.06 В 3
{6}
7000 м в посл. час ливневой дождь 9/8 450 м
[Cb cap Ac trans]
+20.3 +18.6 90 +24 +25 комфорт 1008.0 997.6 1
18 11.06 С 1 7000 м {гроза, ливн. осадки} 10/9 300 м
[]
+19.9 +18.7 93 +24 +24 комфорт 1008.0 997.6 +18.1 +21.6 1
19 11.06 С 2 2500 м ливневой дождь, в посл. час гроза 10/9 200 м
[Cb cap]
+18.6 +17.6 94 +20 +20 тепло 1008.2 997.7 8
20 11.06 В 2 5000 м гроза, ливневой дождь 10/9 200 м
[Cb cap]
+17.9 +16.2 90 +18 +18 тепло 1009.0 998.5 36
21 11.06 В 2 6000 м слабый ливневой дождь, в посл. час гроза 10/9 200 м
[Cb cap]
+17.3 +16.5 95 +18 +18 тепло 1009.0 998.5 56
22 11.06 С 1 4800 м слабый дождь 10/9 300 м
[Cb cap]
+17.6 +17.1 97 +19 +19 тепло 1009.1 998.6 0.8
23 11.06 ЮВ 1 4900 м в посл. час дождь 10/9 100 м
[Cb cap]
+17.9 +17.4 97 +20 +20 тепло 1009.0 998.5 0.4
00 12.06 СВ 1 4200 м {гроза, дождь} 10/9 100 м
[Cb cap]
+17.6 +17.0 96 +19 +19 тепло 1008.7 998.2 1
01 12.06 ЮЗ 2 2000 м дождь 10/9 100 м
[Cb cap]
+17.5 +17.0 97 +18 +18 тепло 1008.5 998.0 4
02 12.06 ЮЗ 2 12 км слабый дождь 10/9 100 м
[Sc]
+16.8 +16.2 96 +17 +17 тепло 1008.7 998.2 6
03 12.06 ЮЗ 2 20 км слабый дождь 10/6 200 м
[Sc Ac trans]
+16.4 +15.8 96 +16 +16 тепло 1008.5 997.9 10
04 12.06 ЮЗ 3
{6}
12 км {дождь} 10/9 210 м
[St]
+16.4 +15.8 96 +16 +16 тепло 1008.5 997.9 0.0
05 12.06 ЮЗ 3
{5}
15 км 10/9 180 м
[St]
+16.4 +15.8 96 +16 +16 тепло 1008.9 998.3
06 12.06 С 3 6000 м {дождь} 10/10 150 м
[St]
+16.6 +16.0 96 +16 +16 тепло 1009.2 998.6 +16.3 +19.9 0.2
07 12.06 С 4
{6}
3000 м слабая морось 10/10 150 м
[St]
+16.3 +15.5 95 +16 +16 по сезону 1009.7 999.1 0.0
08 12.06 С 4
{7}
1500 м дождь {морось} 10/10 120 м
[St]
+15.9 +15.4 97 +15 +15 по сезону 1010.3 999.7 0.0
09 12.06 С 7
{10}
15 км в посл. час дождь {морось} 10/10 270 м
[St]
+15.3 +14.2 93 +14 +14 прохладно 1010.7 1000.1 0.6
10 12.06 СВ 6
{10}
15 км 10/10 330 м
[Sc]
+15.1 +13.5 90 +13 +13 очень
холодно
1011.6 1000.9
11 12.06 СВ 6
{10}
15 км 10/10 420 м
[Sc]
+15.7 +13.4 86 +14 +14 холодно 1012.1 1001.5
12 12.06 СВ 6
{10}
20 км {дождь, морось} 9/9 660 м
[Cu Sc]
+16.6 +13.1 80 +16 +16 прохладно 1012.3 1001.7
13 12.06 СВ 7
{13}
6000 м слабая морось 10/10 300 м
[]
+15.4 +13.9 91 +14 +14 холодно 1012.9 1002.2 0.0
14 12.06 СВ 6
{11}
15 км в посл. час дождь {морось} 9/9 700 м
[Cu Sc]
+16.7 +13.2 80 +16 +16 прохладно 1013.2 1002.6 0.2
15 12.06 СВ 7
{11}
20 км {дождь, морось} 9/9 930 м
[Sc Ac trans]
+18.1 +12.5 70 +18 +18 по сезону 1012.9 1002.3 0.2
16 12.06 С 6
{9}
18 км 10/10 600 м
[]
+18.4 +13.5 73 +18 +18 по сезону 1012.7 1002.2
17 12.06 С 3 12 км 9/6 600 м
[Cu Sc Ac trans]
+19.5 +13.9 70 +21 +22 комфорт 1012.8 1002.3 0.0
18 12.06 С 3 15 км {дождь, морось} 9/3 600 м
[Cu Sc Ac trans]
+18.4 +12.6 69 +19 +20 по сезону 1013.5 1002.9 +15.0 +19.6 0.0
19 12.06 С 2 15 км 5/1 600 м
[Cu Sc Ac trans]
+17.9 +11.9 68 +18 +19 тепло 1014.1 1003.5
20 12.06 С 2 9000 м 9/9 600 м
[Sc]
+17.5 +13.4 77 +18 +18 тепло 1014.8 1004.2
21 12.06 С 4 12 км 9/9 600 м
[Sc]
+16.3 +12.6 79 +16 +16 по сезону 1015.9 1005.2
22 12.06 С 3 10 км 9/9 600 м
[Sc]
+15.4 +12.0 80 +15 +15 тепло 1016.2 1005.5
23 12.06 С 3-5
{5}
13 км 9/9 300 м
[]
+14.5 +11.6 83 +14 +14 тепло 1016.4 1005.7
00 13.06 С 3 15 км 9/9 300 м
[Sc]
+14.2 +10.8 80 +13 +13 по сезону 1016.9 1006.1
01 13.06 С 3 30 км 3/3 600 м
[Sc]
+12.7 +9.3 80 +12 +12 по сезону 1017.2 1006.4
02 13.06 С 3 30 км 4/4 600 м
[Sc]
+12.4 +9.6 83 +11 +11 по сезону 1017.3 1006.5
03 13.06 С 2 25 км 3/3 300 м
[Sc]
+11.8 +9.2 84 +11 +11 по сезону 1017.7 1006.8
04 13.06 С 4
{7}
25 км 5/5 420 м
[Sc]
+11.0 +9.1 88 +8 +8 прохладно 1017.9 1007.0
05 13.06 С 5
{9}
25 км 5/5 400 м
[Sc]
+11.5 +9.2 86 +9 +9 прохладно 1018.0 1007.1
06 13.06 С 5 25 км 6/6 450 м
[Sc]
+12.5 +9.3 81 +10 +11 прохладно 1018.1 1007.3 +10.9 +18.7
07 13.06 С 5
{11}
25 км 8/8 540 м
[Cu med, cong]
+13.6 +9.4 76 +12 +12 прохладно 1018.2 1007.4
08 13.06 С 5
{10}
25 км 8/8 720 м
[Cu med, cong]
+14.9 +9.3 69 +14 +15 прохладно 1018.3 1007.6
09 13.06 С 5
{9}
25 км 8/8 870 м
[Cu Sc]
+15.5 +9.8 69 +14 +16 прохладно 1018.5 1007.8
10 13.06 С 5
{10}
40 км 9/9 600 м
[]
+15.7 +9.4 66 +15 +16 холодно 1018.9 1008.2
11 13.06 С 5
{9}
25 км 9/9 840 м
[Cu Sc]
+15.6 +9.9 69 +15 +16 холодно 1019.0 1008.3
12 13.06 С 5
{8}
25 км 9/9 900 м
[Cu Sc]
+16.8 +10.9 68 +16 +17 прохладно 1019.0 1008.3
13 13.06 С 4
{8}
30 км 9/9 1200 м
[Cu Sc]
+17.0 +8.9 59 +17 +18 прохладно 1018.8 1008.1
14 13.06 С 4
{7}
30 км 10/9 1020 м
[Cu Sc]
+16.3 +9.7 65 +16 +16 прохладно 1019.0 1008.3
15 13.06 С 4
{7}
30 км 10/10 1110 м
[Cu Sc]
+17.0 +9.7 62 +17 +17 прохладно 1019.0 1008.3
16 13.06 С 4
{7}
25 км 9/9 1080 м
[Cu Sc]
+17.5 +9.9 61 +17 +18 прохладно 1018.6 1007.9
17 13.06 С 2 45 км 9/9 1000 м
[Cu Sc]
+17.4 +9.6 60 +18 +18 по сезону 1018.5 1007.8
18 13.06 С 1 25 км 9/9 1500 м
[Sc]
+17.2 +10.1 63 +19 +19 по сезону 1018.7 1008.0 +12.5 +18.0
19 13.06 З 1 25 км 9/9 1000 м
[Sc]
+16.8 +11.1 69 +18 +18 тепло 1018.8 1008.1
20 13.06 З 1 15 км 9/9 1000 м
[Sc]
+16.0 +11.0 72 +17 +17 по сезону 1018.9 1008.2
21 13.06 Ю 1-1
{2}
28 км 9/9 1000 м
[]
+15.2 +11.0 76 +16 +16 по сезону 1019.0 1008.3
22 13.06 Ю 1-1
{1}
19 км н/о +13.8 +10.8 82 +15 +15 тепло 1019.0 1008.2
23 13.06 ЮЗ 1 6000 м 5/0
[]
+11.7 +9.6 87 +11 +11 по сезону 1018.9 1008.0
00 14.06 ЮЗ 1 17 км 5/0
[]
+11.0 +9.7 92 +11 +11 прохладно 1018.6 1007.7
01 14.06 ЮЗ 1 12 км 5/0
[]
+10.2 +9.3 94 +10 +10 по сезону 1018.3 1007.4
02 14.06 ЮЗ 1 12 км местами туман поземный 5/0
[]
+10.3 +9.7 96 +11 +11 по сезону 1018.4 1007.5
03 14.06 Ю 1 12 км 5/0
[]
+10.4 +9.9 97 +11 +11 прохладно 1017.9 1007.0
04 14.06 Ю 2
{3}
10 км 5/0
[Ci fib]
+10.8 +10.2 96 +9 +9 по сезону 1017.7 1006.8
05 14.06 Ю 2
{4}
11 км н/о +11.4 +10.6 95 +10 +10 по сезону 1017.5 1006.6
06 14.06 Ю 2 25 км 5/0
[Ac trans Ci fib]
+13.1 +11.0 87 +12 +14 по сезону 1017.4 1006.6 +9.9 +17.2
07 14.06 Ю 3
{6}
25 км 5/0
[Ac trans Ci fib]
+16.0 +10.5 70 +16 +19 по сезону 1017.1 1006.4
08 14.06 ЮЗ 5
{7}
30 км 8/0
[Ac und Ci fib]
+17.3 +9.9 62 +17 +19 по сезону 1017.1 1006.5
09 14.06 ЮЗ 5
{8}
30 км 9/9 870 м
[Sc Ac trans]
+17.7 +10.6 63 +17 +18 по сезону 1017.2 1006.6
10 14.06 ЮЗ 4
{8}
30 км в посл. час дождь 9/0
[Ac trans]
+18.9 +11.0 60 +20 +24 по сезону 1017.2 1006.6 0.0
11 14.06 ЮЗ 4
{9}
30 км 9/1 930 м
[Cu hum Ac As]
+19.0 +11.6 62 +20 +24 по сезону 1017.2 1006.6
12 14.06 ЮЗ 5
{9}
15 км 9/9 600 м
[]
+19.7 +12.2 62 +21 +22 комфорт 1016.5 1006.0 0.0 0
13 14.06 ЮЗ 5
{9}
30 км в посл. час дождь 9/4 2000 м
[Sc Ac As]
+19.8 +13.7 68 +21 +24 комфорт 1016.2 1005.7 0.0
14 14.06 ЮЗ 6
{10}
30 км 9/6 900 м
[Sc Ac As]
+20.4 +13.6 65 +23 +24 комфорт 1016.0 1005.5
15 14.06 ЮЗ 4
{12}
30 км {дождь} 9/6 900 м
[Sc Ac As]
+20.4 +13.4 64 +23 +24 комфорт 1016.0 1005.5 0.0
16 14.06 З 4
{9}
30 км 9/6 1000 м
[Sc Ac As]
+20.1 +12.6 62 +22 +23 комфорт 1015.9 1005.4
17 14.06 З 5
{8}
30 км 9/9 1110 м
[Sc]
+19.3 +12.8 66 +20 +21 по сезону 1016.2 1005.6
18 14.06 З 5
{7}
30 км {дождь} 9/9 1110 м
[Sc]
+18.7 +13.3 71 +19 +19 по сезону 1016.6 1006.0 +13.2 +21.4
19 14.06 ЮЗ 3
{9}
20 км в посл. час морось 9/9 930 м
[Sc]
+17.5 +13.6 78 +17 +17 тепло 1017.1 1006.5 0.0
20 14.06 ЮЗ 4
{6}
20 км 9/9 1300 м
[Sc]
+17.1 +13.8 81 +17 +17 по сезону 1017.4 1006.8
21 14.06 ЮЗ 3
{5}
25 км 10/10 600 м
[]
+16.6 +14.1 85 +16 +16 по сезону 1017.9 1007.2 0.0 0
22 14.06 ЮЗ 2
{5}
18 км 8/8 600 м
[]
+15.7 +13.7 88 +16 +16 тепло 1018.0 1007.3
23 14.06 ЮЗ 2
{4}
20 км 5/5 1500 м
[Sc]
+14.7 +13.4 92 +15 +15 тепло 1017.8 1007.1
00 15.06 З 2
{3}
8000 м н/о +13.8 +12.7 93 +13 +13 по сезону 1017.6 1006.8 0
01 15.06 З 1
{3}
12 км 6/6 480 м
[Sc]
+13.5 +12.9 96 +14 +14 тепло 1017.5 1006.7
02 15.06 З 3
{3}
10 км местами туман поземный 3/3 720 м
[Sc]
+12.4 +11.6 95 +11 +11 по сезону 1017.4 1006.6
03 15.06 ЮЗ 2
{3}
300 м туман на расстоянии 1/1 1000 м
[Sc]
+12.2 +11.6 96 +11 +11 прохладно 1017.2 1006.4
04 15.06 СЗ 2
{3}
10 км местами туман поземный 5/5 1000 м
[Sc]
+12.0 +11.5 97 +11 +11 по сезону 1017.4 1006.6
05 15.06 С 3
{6}
12 км 8/8 1200 м
[Sc]
+14.0 +13.7 98 +13 +13 по сезону 1017.5 1006.7
06 15.06 С 2 20 км 9/9 800 м
[Sc]
+15.3 +13.7 90 +15 +15 по сезону 1017.7 1007.0 +11.8 +18.7
07 15.06 С 3
{7}
20 км 9/9 700 м
[Cu Sc]
+16.3 +13.4 83 +16 +17 по сезону 1018.1 1007.4
08 15.06 СВ 1 20 км 6/6 600 м
[Cu Sc]
+18.1 +12.5 70 +19 +23 тепло 1018.2 1007.6 0.2
09 15.06 ЮВ 1 20 км 5/5 600 м
[Cu Sc]
+19.6 +13.3 67 +22 +29 комфорт 1017.8 1007.2 0.2
10 15.06 Ю 1-3
{3}
19 км 9/9 600 м
[]
+20.3 +13.5 65 +24 +25 комфорт 1017.6 1007.1
11 15.06 ЮЗ 1 20 км 6/6 600 м
[Cu med, cong]
+22.0 +13.9 60 +25 +33 комфорт 1017.4 1006.9
12 15.06 З 3
{6}
20 км 8/6 1110 м
[Cu hum Ci fib]
+22.6 +13.1 55 +26 +31 жарко 1017.1 1006.7
13 15.06 З 2 25 км 8/4 1000 м
[Cu hum Ci fib]
+22.6 +12.8 54 +25 +35 комфорт 1016.9 1006.5
14 15.06 СЗ 1 18 км 8/4 1000 м
[Cu hum Ci fib]
+22.9 +12.5 52 +26 +35 жарко 1016.8 1006.4
15 15.06 СЗ 2-4
{4}
21 км н/о +25.0 +11.5 43 +26 +26 жарко 1016.4 1006.0
16 15.06 З 5
{8}
20 км 5/4 1500 м
[Cu hum Ci fib]
+24.0 +12.6 49 +26 +28 жарко 1016.2 1005.8
17 15.06 З 4
{7}
30 км 6/3 1500 м
[Cu hum Ci fib]
+23.4 +12.4 50 +26 +28 жарко 1016.2 1005.8
18 15.06 СЗ 2 45 км 6/3 1500 м
[Cu hum Ci fib]
+24.0 +11.7 46 +26 +27 жарко 1016.0 1005.6 +15.4 +25.2
19 15.06 С 2-3
{3}
30 км н/о +21.3 +11.3 53 +23 +23 комфорт 1016.5 1006.0
20 15.06 СЗ 2 35 км 5/1 2000 м
[Cu hum Ci fib]
+18.9 +10.7 59 +20 +20 тепло 1016.4 1005.8
21 15.06 СЗ 5
{9}
20 км 9/9 2000 м
[Sc]
+18.9 +11.5 62 +19 +19 тепло 1016.7 1006.1
22 15.06 С 2 18 км 5/5 1500 м
[Sc]
+17.0 +12.3 74 +17 +17 тепло 1016.9 1006.3
23 15.06 С 2 19 км 9/9 1500 м
[Sc]
+16.3 +12.1 76 +17 +17 тепло 1017.4 1006.7
00 16.06 С 2 20 км 9/9 1500 м
[Sc]
+16.0 +11.2 73 +16 +16 тепло 1017.5 1006.8
01 16.06 С 4
{7}
25 км 9/6 1440 м
[Sc Ci fib]
+15.3 +9.9 70 +14 +14 тепло 1017.3 1006.6
02 16.06 С 2 25 км 9/6 1000 м
[Sc Ci fib]
+14.9 +9.3 69 +15 +15 тепло 1017.1 1006.4
03 16.06 С 1 40 км 9/9 1000 м
[Sc]
+14.5 +8.9 69 +15 +15 по сезону 1016.9 1006.2
04 16.06 С 3
{6}
30 км 9/9 1200 м
[Sc]
+14.6 +7.6 63 +14 +14 тепло 1017.2 1006.4
05 16.06 СЗ 2
{6}
30 км 9/9 1170 м
[Sc]
+14.7 +8.0 64 +14 +15 по сезону 1017.1 1006.4
06 16.06 СЗ 2 30 км 9/9 1170 м
[Sc]
+15.4 +8.2 62 +16 +16 тепло 1017.3 1006.6 +14.4 +23.9
07 16.06 СЗ 3
{4}
30 км 9/9 1050 м
[Sc]
+16.0 +9.6 66 +16 +16 по сезону 1017.5 1006.8
08 16.06 С 3
{6}
30 км 9/8 1080 м
[Sc]
+16.8 +9.7 63 +17 +18 по сезону 1017.9 1007.2
09 16.06 С 1
{6}
30 км 8/0
[Ac trans Ci fib]
+18.8 +10.1 57 +21 +31 комфорт 1017.9 1007.3
10 16.06 З 3
{6}
30 км 4/3 1000 м
[Cu hum Ac trans]
+20.1 +12.1 60 +22 +31 комфорт 1017.6 1007.1
11 16.06 З 4
{8}
30 км 5/5 1140 м
[Cu med, cong]
+21.1 +12.2 57 +23 +30 комфорт 1017.2 1006.7
12 16.06 З 4
{8}
30 км 5/5 1300 м
[Cu med, cong]
+22.4 +12.1 52 +25 +32 комфорт 1016.9 1006.4
13 16.06 З 4
{10}
30 км 4/4 1440 м
[Cu hum]
+22.3 +10.1 46 +24 +31 комфорт 1016.6 1006.1
14 16.06 З 4
{13}
30 км 5/4 1500 м
[Cu hum Ac trans]
+23.5 +11.5 47 +25 +30 комфорт 1016.5 1006.1
15 16.06 З 5
{8}
30 км 6/4 1500 м
[Cu hum Ac trans]
+22.5 +10.3 46 +24 +27 комфорт 1016.3 1005.9
16 16.06 З 5
{9}
30 км 8/4 1500 м
[Cu hum Ac trans]
+22.1 +12.1 53 +24 +26 комфорт 1016.4 1005.9
17 16.06 З 5
{9}
30 км 8/4 1500 м
[Cu hum Ac trans]
+21.8 +10.6 49 +24 +25 комфорт 1016.7 1006.2
18 16.06 З 5
{8}
35 км 6/3 1500 м
[Cu hum Ac trans]
+21.9 +10.7 49 +24 +24 комфорт 1016.8 1006.3 +15.4 +23.9
19 16.06 З 4
{6}
35 км 6/5 1500 м
[Sc Ac trans]
+18.4 +10.7 61 +19 +19 тепло 1017.3 1006.7
20 16.06 З 4
{7}
35 км 6/5 1500 м
[Sc Ac trans]
+17.7 +10.6 63 +18 +18 тепло 1017.4 1006.8
21 16.06 З 1 35 км 5/4 1500 м
[Sc Ac trans Ci fib]
+15.4 +10.8 74 +16 +16 по сезону 1017.9 1007.2
22 16.06 З 1 35 км 9/9 1500 м
[Sc]
+15.8 +11.6 76 +16 +16 тепло 1018.0 1007.3
23 16.06 З 1 35 км 9/9 1500 м
[Sc]
+15.8 +12.0 78 +16 +16 тепло 1018.1 1007.4
00 17.06 З 1 40 км 9/8 1500 м
[Sc Ci fib]
+15.5 +11.5 77 +16 +16 тепло 1018.2 1007.5
01 17.06 З 2 35 км 9/3 1000 м
[Sc Ci fib]
+14.4 +11.4 82 +14 +14 тепло 1018.5 1007.7
02 17.06 СЗ 2 35 км 6/0
[]
+14.7 +11.5 81 +15 +15 тепло 1019.0 1008.2
03 17.06 СЗ 1 35 км 9/6 1500 м
[Sc Ci fib]
+14.3 +10.9 80 +15 +15 по сезону 1019.2 1008.4
04 17.06 СЗ 4
{7}
35 км 9/9 1000 м
[Sc]
+14.6 +8.8 68 +14 +14 тепло 1019.4 1008.6
05 17.06 СЗ 3
{6}
35 км 9/9 1380 м
[Sc]
+13.9 +8.9 72 +13 +13 по сезону 1019.9 1009.1
06 17.06 З 3 35 км 9/9 1080 м
[Sc]
+14.9 +9.7 71 +14 +14 по сезону 1020.2 1009.4 +13.9 +21.8
07 17.06 З 2
{6}
35 км 9/3 1380 м
[Sc Ci fib]
+15.7 +9.4 66 +16 +19 по сезону 1020.7 1010.0
08 17.06 З 4
{7}
35 км 9/8 1200 м
[Sc Ac trans]
+16.4 +9.6 64 +16 +17 по сезону 1021.2 1010.5
09 17.06 З 2 19 км 9/3 600 м
[Sc Ac trans]
+17.1 +9.5 61 +17 +22 по сезону 1021.2 1010.5
10 17.06 З 2 30 км 9/3 1000 м
[Sc Ac trans]
+17.7 +9.8 60 +18 +23 прохладно 1021.0 1010.3
11 17.06 З 3 19 км 9/9 1000 м
[]
+17.8 +10.7 63 +18 +20 прохладно 1021.0 1010.3
12 17.06 З 3 19 км 9/9 1000 м
[Sc]
+19.4 +10.4 56 +21 +22 комфорт 1020.9 1010.3
13 17.06 З 2 19 км 9/9 1000 м
[Sc]
+19.1 +10.6 58 +21 +22 комфорт 1020.7 1010.1
14 17.06 ЮЗ 3 22 км 9/8 1000 м
[Sc Ac trans]
+20.9 +9.8 49 +23 +25 комфорт 1020.8 1010.2
15 17.06 З 3 19 км 8/5 1000 м
[Sc Ac trans]
+21.5 +10.9 51 +23 +27 комфорт 1020.5 1010.0
16 17.06 З 3 30 км 6/6 1000 м
[Sc]
+20.3 +9.8 51 +22 +25 комфорт 1020.6 1010.0
17 17.06 З 2 30 км 5/5 1000 м
[Sc]
+20.3 +10.1 52 +22 +24 комфорт 1020.6 1010.0
18 17.06 З 2 30 км 5/4 1000 м
[Sc Ci fib]
+20.8 +10.0 50 +23 +24 комфорт 1020.9 1010.3 +14.7 +21.9
19 17.06 ЮЗ 2 30 км 8/8 1000 м
[Sc Ci fib]
+18.7 +10.0 57 +20 +20 тепло 1020.9 1010.3
20 17.06 ЮЗ 2 30 км 9/9 1000 м
[Sc]
+18.6 +10.7 60 +20 +20 тепло 1021.3 1010.7
21 17.06 ЮЗ 2 30 км 9/9 1000 м
[Sc]
+18.3 +11.1 63 +19 +19 тепло 1021.7 1011.0
22 17.06 ЮЗ 2 30 км 8/6 1000 м
[Sc Ac trans]
+17.5 +11.1 66 +18 +18 тепло 1021.7 1011.0
23 17.06 ЮЗ 2 30 км 9/9 1000 м
[Sc]
+17.7 +11.5 67 +18 +18 тепло 1021.6 1010.9
00 18.06 ЮЗ 2 30 км 8/8 1000 м
[Sc]
+17.3 +12.2 72 +18 +18 тепло 1021.6 1010.9
01 18.06 ЮЗ 2 30 км 8/8 1000 м
[Sc]
+16.4 +12.4 77 +17 +17 тепло 1021.6 1010.9
02 18.06 З 2 30 км 9/9 600 м
[Sc]
+16.1 +12.6 80 +16 +16 тепло 1021.6 1010.9
03 18.06 ЮЗ 1 19 км 9/9 600 м
[Sc]
+16.2 +12.7 80 +17 +17 тепло 1021.7 1011.0
04 18.06 ЮЗ 2 30 км 9/9 600 м
[Sc]
+16.2 +13.1 82 +17 +17 тепло 1022.0 1011.3
05 18.06 ЮЗ 2
{5}
30 км 9/9 870 м
[Sc]
+16.4 +13.5 83 +16 +17 тепло 1022.0 1011.3
06 18.06 З 4 30 км 9/9 400 м
[Sc]
+17.0 +13.9 82 +17 +17 тепло 1022.4 1011.7 +16.1 +20.8
07 18.06 ЮЗ 4
{7}
30 км 9/9 480 м
[Sc]
+17.7 +14.2 80 +17 +18 по сезону 1022.5 1011.8
08 18.06 ЮЗ 3
{7}
15 км 9/9 400 м
[Sc]
+17.6 +14.9 84 +18 +18 по сезону 1023.0 1012.3
09 18.06 ЮЗ 3
{6}
15 км в посл. час морось 9/9 360 м
[Sc]
+18.6 +15.5 82 +20 +21 тепло 1023.1 1012.5 0.0
12 18.06 З 5
{9}
30 км {морось} 8/8 700 м
[Cu Sc]
+22.3 +16.1 68 +26 +28 жарко 1023.2 1012.7 0.0
15 18.06 З 6
{9}
19 км 9/9 1000 м
[]
+23.1 +14.1 57 +27 +27 душно 1023.0 1012.5 0
16 18.06 З 5
{10}
30 км 6/6 1200 м
[Sc diur, vesp]
+23.8 +13.9 54 +26 +28 жарко 1022.7 1012.2

 

Местоположение метеостанции Paris Orly Airport (Франция): широта 48.72 долгота 2.38 высота над уровнем моря 90 м.

В архиве по умолчанию представлена погода в Paris Orly Airport за последнюю неделю. Архивные данные за месяц целиком и за предыдущие месяцы, начиная с января 2011 года, Вы можете получить, выбрав интересующий диапазон дат из раскрывающегося списка и нажав кнопку "Ввод!".


*Определитесь, кто Вы:
робот инопланетянин человек

Внимание! Время в таблицах - всемирное. Для получения местного времени необходимо прибавить поправку, которая в Paris Orly Airport равна 1 ч.

Смотрите также архив погоды в соседних городах и на ближайших метеорологических станциях:

Погода в Paris (Франция) (12 км)
Погода в Villacoublay (Франция) (14 км)
Погода в Melun (Франция) (25 км)
Погода в Le Bourget (Франция) (28 км)
Погода в Trappes (Франция) (28 км)
Погода в Charles De Gaulle Airport (Франция) (35 км)
Погода в Cormeilles (Франция) (48 км)
Погода в Creil (Франция) (60 км)
Погода в Chartres (Франция) (70 км)
Погода в Beauvais (Франция) (86 км)

Пояснения к столбцам:

Ветер - указаны скорость ветра в м/с - средняя за 10 мин, порывы в срок и между сроками (в фигурных скобках) и направление, откуда дует ветер: С - северный, СВ - северо-восточный, В - восточный, ЮВ - юго-восточный, Ю - южный, ЮЗ - юго-западный, З - западный, СЗ - северо-западный.
Видимость - горизонтальная дальность видимости в метрах или километрах. При видимости от 1 до 10 км при отсутствии осадков обычно наблюдается дымка, при ухудшении видимости до 1 км и менее - туман. В сухую погоду видимость может ухудшаться дымом, пылью или мглою.
Явления - указаны атмосферные явления, наблюдавшиеся в срок или в последний час перед сроком; фигурными скобками обозначены явления, наблюдавшиеся между сроками (за 1-3 часа до срока); квадратными скобками обозначены град или гололедные отложения с указанием их диаметра в мм.
Облачность - указаны через наклонную черту общая и нижняя облачность в баллах и высота нижней границы облаков в метрах; квадратными скобками обозначены формы облаков: Ci - перистые, Cs - перисто-слоистые, Cc - перисто-кучевые, Ac - высококучевые, As - высокослоистые, Sc - слоисто-кучевые, Ns - слоисто-дождевые, Cu - кучевые, Cb - кучево-дождевые. Подробнее классификацию облаков см. в Атласе облаков (PDF).
T - Температура воздуха - температура, измеренная на высоте 2 м над землей.
Td - Температура точки росы - температура, при понижении до которой содержащийся в воздухе водяной пар достигнет насыщения.
f - Относительная влажность воздуха - влажноcть воздуха, измеренная на высоте 2 м над землей.
Te - Эффективная температура - температура, которую ощущает одетый по сезону человек в тени. Характеристика душности погоды. При расчете учитывается влияние влажности воздуха и скорости ветра на теплоощущения человека.
Tes - Эффективная температура на солнце - температура, которую ощущает человек, с поправкой на солнечный нагрев. Характеристика знойности погоды. Зависит от высоты солнца над горизонтом, облачности и скорости ветра. Ночью, в пасмурную погоду, а также при ветре 12 м/с и более поправка равна нулю.
P - Атмосферное давление - приведенное к уровню моря атмосферное давление.
Po - Атмосферное давление - измеренное на уровне метеостанции атмосферное давление.
Tmin - Минимальная температура - минимум температуры воздуха на высоте 2 м над землей.
Tmax - Максимальная температура - максимум температуры воздуха на высоте 2 м над землей.
R - Количество осадков - Количество выпавших осадков за период времени, мм. При наведении курсора мыши на число - период времени, за который выпало указанное количество осадков.
R24 - Количество осадков - Количество выпавших осадков за 24 часа, мм.
S - Снежный покров - Высота снежного покрова, см. При наведении курсора мыши на число - состояние снежного покрова и степень покрытия местности в баллах.